Year,Month,Day,Hour,Minute,Value (Times are PST for temperature in C)
2008,05,26,00,00,18.10
2008,05,26,00,01,18.10
2008,05,26,00,02,18.10
2008,05,26,00,03,18.10
2008,05,26,00,04,18.10
2008,05,26,00,05,18.10
2008,05,26,00,06,18.00
2008,05,26,00,07,18.00
2008,05,26,00,08,18.00
2008,05,26,00,09,18.00
2008,05,26,00,10,17.90
2008,05,26,00,11,17.90
2008,05,26,00,12,17.90
2008,05,26,00,13,17.90
2008,05,26,00,14,17.90
2008,05,26,00,15,17.90
2008,05,26,00,16,17.90
2008,05,26,00,17,17.80
2008,05,26,00,18,17.90
2008,05,26,00,19,17.90
2008,05,26,00,20,17.90
2008,05,26,00,21,17.80
2008,05,26,00,22,17.80
2008,05,26,00,23,17.80
2008,05,26,00,24,17.80
2008,05,26,00,25,17.80
2008,05,26,00,26,17.80
2008,05,26,00,27,17.80
2008,05,26,00,28,17.80
2008,05,26,00,29,17.80
2008,05,26,00,30,17.80
2008,05,26,00,31,17.80
2008,05,26,00,32,17.90
2008,05,26,00,33,17.90
2008,05,26,00,34,17.90
2008,05,26,00,35,17.80
2008,05,26,00,36,17.80
2008,05,26,00,37,17.80
2008,05,26,00,38,17.80
2008,05,26,00,39,17.80
2008,05,26,00,40,17.90
2008,05,26,00,41,17.90
2008,05,26,00,42,17.90
2008,05,26,00,43,17.90
2008,05,26,00,44,17.80
2008,05,26,00,45,17.90
2008,05,26,00,46,17.90
2008,05,26,00,47,17.90
2008,05,26,00,48,17.90
2008,05,26,00,49,17.90
2008,05,26,00,50,17.90
2008,05,26,00,51,17.90
2008,05,26,00,52,17.90
2008,05,26,00,53,17.90
2008,05,26,00,54,17.90
2008,05,26,00,55,17.90
2008,05,26,00,56,17.90
2008,05,26,00,57,17.90
2008,05,26,00,58,17.90
2008,05,26,00,59,17.90
2008,05,26,01,00,17.90
2008,05,26,01,01,17.90
2008,05,26,01,02,17.90
2008,05,26,01,03,17.90
2008,05,26,01,04,17.90
2008,05,26,01,05,17.90
2008,05,26,01,06,17.90
2008,05,26,01,07,17.90
2008,05,26,01,08,17.80
2008,05,26,01,09,17.80
2008,05,26,01,10,17.80
2008,05,26,01,11,17.80
2008,05,26,01,12,17.80
2008,05,26,01,13,17.80
2008,05,26,01,14,17.80
2008,05,26,01,15,17.80
2008,05,26,01,16,17.80
2008,05,26,01,17,17.80
2008,05,26,01,18,17.80
2008,05,26,01,19,17.80
2008,05,26,01,20,17.80
2008,05,26,01,21,17.80
2008,05,26,01,22,17.80
2008,05,26,01,23,17.80
2008,05,26,01,24,17.80
2008,05,26,01,25,17.80
2008,05,26,01,26,17.80
2008,05,26,01,27,17.80
2008,05,26,01,28,17.80
2008,05,26,01,29,17.80
2008,05,26,01,30,17.80
2008,05,26,01,31,17.80
2008,05,26,01,32,17.80
2008,05,26,01,33,17.80
2008,05,26,01,34,17.80
2008,05,26,01,35,17.80
2008,05,26,01,36,17.80
2008,05,26,01,37,17.80
2008,05,26,01,38,17.70
2008,05,26,01,39,17.70
2008,05,26,01,40,17.80
2008,05,26,01,41,17.80
2008,05,26,01,42,17.80
2008,05,26,01,43,17.70
2008,05,26,01,44,17.70
2008,05,26,01,45,17.60
2008,05,26,01,46,17.60
2008,05,26,01,47,17.60
2008,05,26,01,48,17.50
2008,05,26,01,49,17.40
2008,05,26,01,50,17.30
2008,05,26,01,51,17.20
2008,05,26,01,52,17.10
2008,05,26,01,53,17.10
2008,05,26,01,54,17.00
2008,05,26,01,55,16.80
2008,05,26,01,56,16.70
2008,05,26,01,57,16.50
2008,05,26,01,58,16.50
2008,05,26,01,59,16.40
2008,05,26,02,00,16.40
2008,05,26,02,01,16.30
2008,05,26,02,02,16.30
2008,05,26,02,03,16.20
2008,05,26,02,04,16.20
2008,05,26,02,05,16.10
2008,05,26,02,06,16.00
2008,05,26,02,07,16.00
2008,05,26,02,08,15.90
2008,05,26,02,09,15.90
2008,05,26,02,10,15.80
2008,05,26,02,11,15.80
2008,05,26,02,12,15.80
2008,05,26,02,13,15.80
2008,05,26,02,14,15.80
2008,05,26,02,15,15.80
2008,05,26,02,16,15.80
2008,05,26,02,17,15.80
2008,05,26,02,18,15.80
2008,05,26,02,19,15.90
2008,05,26,02,20,15.90
2008,05,26,02,21,15.90
2008,05,26,02,22,15.90
2008,05,26,02,23,15.90
2008,05,26,02,24,15.90
2008,05,26,02,25,15.80
2008,05,26,02,26,15.80
2008,05,26,02,27,15.70
2008,05,26,02,28,15.70
2008,05,26,02,29,15.60
2008,05,26,02,30,15.50
2008,05,26,02,31,15.50
2008,05,26,02,32,15.40
2008,05,26,02,33,15.40
2008,05,26,02,34,15.40
2008,05,26,02,35,15.40
2008,05,26,02,36,15.40
2008,05,26,02,37,15.30
2008,05,26,02,38,15.30
2008,05,26,02,39,15.30
2008,05,26,02,40,15.30
2008,05,26,02,41,15.30
2008,05,26,02,42,15.30
2008,05,26,02,43,15.30
2008,05,26,02,44,15.30
2008,05,26,02,45,15.30
2008,05,26,02,46,15.30
2008,05,26,02,47,15.30
2008,05,26,02,48,15.30
2008,05,26,02,49,15.30
2008,05,26,02,50,15.20
2008,05,26,02,51,15.20
2008,05,26,02,52,15.20
2008,05,26,02,53,15.10
2008,05,26,02,54,15.10
2008,05,26,02,55,15.00
2008,05,26,02,56,15.00
2008,05,26,02,57,15.00
2008,05,26,02,58,14.90
2008,05,26,02,59,14.80
2008,05,26,03,00,14.80
2008,05,26,03,01,14.70
2008,05,26,03,02,14.70
2008,05,26,03,03,14.60
2008,05,26,03,04,14.60
2008,05,26,03,05,14.60
2008,05,26,03,06,14.60
2008,05,26,03,07,14.60
2008,05,26,03,08,14.60
2008,05,26,03,09,14.60
2008,05,26,03,10,14.60
2008,05,26,03,11,14.50
2008,05,26,03,12,14.60
2008,05,26,03,13,14.50
2008,05,26,03,14,14.50
2008,05,26,03,15,14.50
2008,05,26,03,16,14.40
2008,05,26,03,17,14.40
2008,05,26,03,18,14.40
2008,05,26,03,19,14.40
2008,05,26,03,20,14.30
2008,05,26,03,21,14.30
2008,05,26,03,22,14.30
2008,05,26,03,23,14.30
2008,05,26,03,24,14.30
2008,05,26,03,25,14.30
2008,05,26,03,26,14.30
2008,05,26,03,27,14.20
2008,05,26,03,28,14.20
2008,05,26,03,29,14.20
2008,05,26,03,30,14.20
2008,05,26,03,31,14.20
2008,05,26,03,32,14.20
2008,05,26,03,33,14.20
2008,05,26,03,34,14.20
2008,05,26,03,35,14.20
2008,05,26,03,36,14.20
2008,05,26,03,37,14.20
2008,05,26,03,38,14.20
2008,05,26,03,39,14.20
2008,05,26,03,40,14.20
2008,05,26,03,41,14.20
2008,05,26,03,42,14.20
2008,05,26,03,43,14.20
2008,05,26,03,44,14.20
2008,05,26,03,45,14.20
2008,05,26,03,46,14.20
2008,05,26,03,47,14.20
2008,05,26,03,48,14.20
2008,05,26,03,49,14.20
2008,05,26,03,50,14.20
2008,05,26,03,51,14.20
2008,05,26,03,52,14.20
2008,05,26,03,53,14.20
2008,05,26,03,54,14.20
2008,05,26,03,55,14.10
2008,05,26,03,56,14.10
2008,05,26,03,57,14.00
2008,05,26,03,58,14.00
2008,05,26,03,59,13.90
2008,05,26,04,00,13.90
2008,05,26,04,01,13.80
2008,05,26,04,02,13.80
2008,05,26,04,03,13.80
2008,05,26,04,04,13.70
2008,05,26,04,05,13.70
2008,05,26,04,06,13.70
2008,05,26,04,07,13.60
2008,05,26,04,08,13.60
2008,05,26,04,09,13.60
2008,05,26,04,10,13.60
2008,05,26,04,11,13.60
2008,05,26,04,12,13.50
2008,05,26,04,13,13.50
2008,05,26,04,14,13.50
2008,05,26,04,15,13.50
2008,05,26,04,16,13.50
2008,05,26,04,17,13.50
2008,05,26,04,18,13.50
2008,05,26,04,19,13.50
2008,05,26,04,20,13.50
2008,05,26,04,21,13.40
2008,05,26,04,22,13.40
2008,05,26,04,23,13.40
2008,05,26,04,24,13.40
2008,05,26,04,25,13.30
2008,05,26,04,26,13.30
2008,05,26,04,27,13.30
2008,05,26,04,28,13.20
2008,05,26,04,29,13.20
2008,05,26,04,30,13.10
2008,05,26,04,31,13.10
2008,05,26,04,32,13.00
2008,05,26,04,33,13.00
2008,05,26,04,34,12.90
2008,05,26,04,35,12.90
2008,05,26,04,36,12.90
2008,05,26,04,37,12.90
2008,05,26,04,38,12.90
2008,05,26,04,39,12.90
2008,05,26,04,40,12.90
2008,05,26,04,41,12.90
2008,05,26,04,42,12.80
2008,05,26,04,43,12.80
2008,05,26,04,44,12.80
2008,05,26,04,45,12.80
2008,05,26,04,46,12.70
2008,05,26,04,47,12.70
2008,05,26,04,48,12.70
2008,05,26,04,49,12.70
2008,05,26,04,50,12.70
2008,05,26,04,51,12.70
2008,05,26,04,52,12.70
2008,05,26,04,53,12.60
2008,05,26,04,54,12.60
2008,05,26,04,55,12.60
2008,05,26,04,56,12.60
2008,05,26,04,57,12.50
2008,05,26,04,58,12.50
2008,05,26,04,59,12.50
2008,05,26,05,00,12.50
2008,05,26,05,01,12.50
2008,05,26,05,02,12.50
2008,05,26,05,03,12.50
2008,05,26,05,04,12.50
2008,05,26,05,05,12.50
2008,05,26,05,06,12.50
2008,05,26,05,07,12.50
2008,05,26,05,08,12.50
2008,05,26,05,09,12.50
2008,05,26,05,10,12.50
2008,05,26,05,11,12.50
2008,05,26,05,12,12.50
2008,05,26,05,13,12.50
2008,05,26,05,14,12.50
2008,05,26,05,15,12.40
2008,05,26,05,16,12.40
2008,05,26,05,17,12.40
2008,05,26,05,18,12.40
2008,05,26,05,19,12.30
2008,05,26,05,20,12.30
2008,05,26,05,21,12.30
2008,05,26,05,22,12.30
2008,05,26,05,23,12.30
2008,05,26,05,24,12.30
2008,05,26,05,25,12.30
2008,05,26,05,26,12.30
2008,05,26,05,27,12.30
2008,05,26,05,28,12.30
2008,05,26,05,29,12.30
2008,05,26,05,30,12.30
2008,05,26,05,31,12.30
2008,05,26,05,32,12.30
2008,05,26,05,33,12.30
2008,05,26,05,34,12.30
2008,05,26,05,35,12.30
2008,05,26,05,36,12.30
2008,05,26,05,37,12.40
2008,05,26,05,38,12.40
2008,05,26,05,39,12.40
2008,05,26,05,40,12.40
2008,05,26,05,41,12.40
2008,05,26,05,42,12.40
2008,05,26,05,43,12.40
2008,05,26,05,44,12.40
2008,05,26,05,45,12.40
2008,05,26,05,46,12.40
2008,05,26,05,47,12.40
2008,05,26,05,48,12.40
2008,05,26,05,49,12.40
2008,05,26,05,50,12.40
2008,05,26,05,51,12.40
2008,05,26,05,52,12.40
2008,05,26,05,53,12.40
2008,05,26,05,54,12.40
2008,05,26,05,55,12.40
2008,05,26,05,56,12.40
2008,05,26,05,57,12.40
2008,05,26,05,58,12.50
2008,05,26,05,59,12.50
2008,05,26,06,00,12.50
2008,05,26,06,01,12.50
2008,05,26,06,02,12.50
2008,05,26,06,03,12.50
2008,05,26,06,04,12.50
2008,05,26,06,05,12.60
2008,05,26,06,06,12.60
2008,05,26,06,07,12.60
2008,05,26,06,08,12.60
2008,05,26,06,09,12.60
2008,05,26,06,10,12.70
2008,05,26,06,11,12.70
2008,05,26,06,12,12.70
2008,05,26,06,13,12.70
2008,05,26,06,14,12.70
2008,05,26,06,15,12.70
2008,05,26,06,16,12.70
2008,05,26,06,17,12.70
2008,05,26,06,18,12.70
2008,05,26,06,19,12.70
2008,05,26,06,20,12.70
2008,05,26,06,21,12.80
2008,05,26,06,22,12.80
2008,05,26,06,23,12.80
2008,05,26,06,24,12.80
2008,05,26,06,25,12.80
2008,05,26,06,26,12.80
2008,05,26,06,27,12.80
2008,05,26,06,28,12.80
2008,05,26,06,29,12.80
2008,05,26,06,30,12.80
2008,05,26,06,31,12.80
2008,05,26,06,32,12.70
2008,05,26,06,33,12.70
2008,05,26,06,34,12.70
2008,05,26,06,35,12.70
2008,05,26,06,36,12.70
2008,05,26,06,37,12.80
2008,05,26,06,38,12.80
2008,05,26,06,39,12.80
2008,05,26,06,40,12.90
2008,05,26,06,41,12.90
2008,05,26,06,42,12.90
2008,05,26,06,43,13.00
2008,05,26,06,44,13.10
2008,05,26,06,45,13.10
2008,05,26,06,46,13.10
2008,05,26,06,47,13.20
2008,05,26,06,48,13.20
2008,05,26,06,49,13.20
2008,05,26,06,50,13.30
2008,05,26,06,51,13.30
2008,05,26,06,52,13.30
2008,05,26,06,53,13.40
2008,05,26,06,54,13.40
2008,05,26,06,55,13.40
2008,05,26,06,56,13.50
2008,05,26,06,57,13.50
2008,05,26,06,58,13.50
2008,05,26,06,59,13.60
2008,05,26,07,00,13.60
2008,05,26,07,01,13.60
2008,05,26,07,02,13.60
2008,05,26,07,03,13.70
2008,05,26,07,04,13.70
2008,05,26,07,05,13.70
2008,05,26,07,06,13.70
2008,05,26,07,07,13.70
2008,05,26,07,08,13.80
2008,05,26,07,09,13.80
2008,05,26,07,10,13.80
2008,05,26,07,11,13.80
2008,05,26,07,12,13.90
2008,05,26,07,13,13.90
2008,05,26,07,14,13.90
2008,05,26,07,15,13.90
2008,05,26,07,16,14.00
2008,05,26,07,17,14.00
2008,05,26,07,18,14.10
2008,05,26,07,19,14.10
2008,05,26,07,20,14.10
2008,05,26,07,21,14.20
2008,05,26,07,22,14.20
2008,05,26,07,23,14.30
2008,05,26,07,24,14.30
2008,05,26,07,25,14.50
2008,05,26,07,26,14.60
2008,05,26,07,27,14.70
2008,05,26,07,28,14.80
2008,05,26,07,29,14.80
2008,05,26,07,30,14.80
2008,05,26,07,31,14.70
2008,05,26,07,32,14.60
2008,05,26,07,33,14.50
2008,05,26,07,34,14.40
2008,05,26,07,35,14.30
2008,05,26,07,36,14.30
2008,05,26,07,37,14.30
2008,05,26,07,38,14.30
2008,05,26,07,39,14.30
2008,05,26,07,40,14.30
2008,05,26,07,41,14.30
2008,05,26,07,42,14.30
2008,05,26,07,43,14.30
2008,05,26,07,44,14.30
2008,05,26,07,45,14.30
2008,05,26,07,46,14.40
2008,05,26,07,47,14.40
2008,05,26,07,48,14.40
2008,05,26,07,49,14.40
2008,05,26,07,50,14.30
2008,05,26,07,51,14.30
2008,05,26,07,52,14.20
2008,05,26,07,53,14.20
2008,05,26,07,54,14.20
2008,05,26,07,55,14.20
2008,05,26,07,56,14.20
2008,05,26,07,57,14.30
2008,05,26,07,58,14.30
2008,05,26,07,59,14.40
2008,05,26,08,00,14.40
2008,05,26,08,01,14.50
2008,05,26,08,02,14.50
2008,05,26,08,03,14.60
2008,05,26,08,04,14.70
2008,05,26,08,05,14.70
2008,05,26,08,06,14.80
2008,05,26,08,07,15.00
2008,05,26,08,08,15.00
2008,05,26,08,09,15.00
2008,05,26,08,10,15.20
2008,05,26,08,11,15.30
2008,05,26,08,12,15.40
2008,05,26,08,13,15.50
2008,05,26,08,14,15.60
2008,05,26,08,15,15.70
2008,05,26,08,16,15.90
2008,05,26,08,17,16.00
2008,05,26,08,18,16.10
2008,05,26,08,19,16.20
2008,05,26,08,20,16.30
2008,05,26,08,21,16.40
2008,05,26,08,22,16.40
2008,05,26,08,23,16.40
2008,05,26,08,24,16.20
2008,05,26,08,25,16.00
2008,05,26,08,26,15.80
2008,05,26,08,27,15.60
2008,05,26,08,28,15.50
2008,05,26,08,29,15.50
2008,05,26,08,30,15.40
2008,05,26,08,31,15.40
2008,05,26,08,32,15.30
2008,05,26,08,33,15.30
2008,05,26,08,34,15.30
2008,05,26,08,35,15.30
2008,05,26,08,36,15.30
2008,05,26,08,37,15.40
2008,05,26,08,38,15.40
2008,05,26,08,39,15.50
2008,05,26,08,40,15.60
2008,05,26,08,41,15.70
2008,05,26,08,42,15.80
2008,05,26,08,43,15.90
2008,05,26,08,44,16.00
2008,05,26,08,45,16.10
2008,05,26,08,46,16.20
2008,05,26,08,47,16.20
2008,05,26,08,48,16.20
2008,05,26,08,49,16.20
2008,05,26,08,50,16.30
2008,05,26,08,51,16.40
2008,05,26,08,52,16.50
2008,05,26,08,53,16.50
2008,05,26,08,54,16.60
2008,05,26,08,55,16.60
2008,05,26,08,56,16.60
2008,05,26,08,57,16.60
2008,05,26,08,58,16.60
2008,05,26,08,59,16.50
2008,05,26,09,00,16.50
2008,05,26,09,01,16.50
2008,05,26,09,02,16.40
2008,05,26,09,03,16.40
2008,05,26,09,04,16.40
2008,05,26,09,05,16.40
2008,05,26,09,06,16.40
2008,05,26,09,07,16.50
2008,05,26,09,08,16.50
2008,05,26,09,09,16.60
2008,05,26,09,10,16.70
2008,05,26,09,11,16.70
2008,05,26,09,12,16.70
2008,05,26,09,13,16.80
2008,05,26,09,14,16.80
2008,05,26,09,15,16.80
2008,05,26,09,16,16.90
2008,05,26,09,17,16.90
2008,05,26,09,18,16.90
2008,05,26,09,19,16.90
2008,05,26,09,20,16.90
2008,05,26,09,21,17.00
2008,05,26,09,22,17.00
2008,05,26,09,23,17.10
2008,05,26,09,24,17.20
2008,05,26,09,25,17.30
2008,05,26,09,26,17.40
2008,05,26,09,27,17.50
2008,05,26,09,28,17.50
2008,05,26,09,29,17.40
2008,05,26,09,30,17.40
2008,05,26,09,31,17.30
2008,05,26,09,32,17.30
2008,05,26,09,33,17.20
2008,05,26,09,34,17.10
2008,05,26,09,35,17.10
2008,05,26,09,36,17.00
2008,05,26,09,37,16.90
2008,05,26,09,38,16.90
2008,05,26,09,39,16.80
2008,05,26,09,40,16.80
2008,05,26,09,41,16.70
2008,05,26,09,42,16.70
2008,05,26,09,43,16.70
2008,05,26,09,44,16.60
2008,05,26,09,45,16.50
2008,05,26,09,46,16.50
2008,05,26,09,47,16.40
2008,05,26,09,48,16.40
2008,05,26,09,49,16.40
2008,05,26,09,50,16.40
2008,05,26,09,51,16.30
2008,05,26,09,52,16.20
2008,05,26,09,53,16.10
2008,05,26,09,54,16.00
2008,05,26,09,55,15.90
2008,05,26,09,56,15.90
2008,05,26,09,57,15.80
2008,05,26,09,58,15.80
2008,05,26,09,59,15.70
2008,05,26,10,00,15.70
2008,05,26,10,01,15.70
2008,05,26,10,02,15.70
2008,05,26,10,03,15.70
2008,05,26,10,04,15.70
2008,05,26,10,05,15.80
2008,05,26,10,06,15.80
2008,05,26,10,07,15.90
2008,05,26,10,08,15.90
2008,05,26,10,09,16.00
2008,05,26,10,10,16.00
2008,05,26,10,11,16.10
2008,05,26,10,12,16.10
2008,05,26,10,13,16.20
2008,05,26,10,14,16.20
2008,05,26,10,15,16.20
2008,05,26,10,16,16.30
2008,05,26,10,17,16.40
2008,05,26,10,18,16.40
2008,05,26,10,19,16.50
2008,05,26,10,20,16.50
2008,05,26,10,21,16.50
2008,05,26,10,22,16.50
2008,05,26,10,23,16.40
2008,05,26,10,24,16.30
2008,05,26,10,25,16.30
2008,05,26,10,26,16.20
2008,05,26,10,27,16.20
2008,05,26,10,28,16.30
2008,05,26,10,29,16.30
2008,05,26,10,30,16.30
2008,05,26,10,31,16.40
2008,05,26,10,32,16.50
2008,05,26,10,33,16.60
2008,05,26,10,34,16.70
2008,05,26,10,35,16.80
2008,05,26,10,36,17.00
2008,05,26,10,37,17.10
2008,05,26,10,38,17.20
2008,05,26,10,39,17.30
2008,05,26,10,40,17.40
2008,05,26,10,41,17.50
2008,05,26,10,42,17.60
2008,05,26,10,43,17.60
2008,05,26,10,44,17.60
2008,05,26,10,45,17.60
2008,05,26,10,46,17.60
2008,05,26,10,47,17.70
2008,05,26,10,48,17.70
2008,05,26,10,49,17.70
2008,05,26,10,50,17.80
2008,05,26,10,51,17.80
2008,05,26,10,52,17.80
2008,05,26,10,53,17.90
2008,05,26,10,54,17.80
2008,05,26,10,55,17.70
2008,05,26,10,56,17.60
2008,05,26,10,57,17.50
2008,05,26,10,58,17.50
2008,05,26,10,59,17.50
2008,05,26,11,00,17.40
2008,05,26,11,01,17.30
2008,05,26,11,02,17.30
2008,05,26,11,03,17.20
2008,05,26,11,04,17.10
2008,05,26,11,05,17.10
2008,05,26,11,06,17.00
2008,05,26,11,07,16.90
2008,05,26,11,08,16.90
2008,05,26,11,09,16.80
2008,05,26,11,10,16.60
2008,05,26,11,11,16.50
2008,05,26,11,12,16.30
2008,05,26,11,13,16.30
2008,05,26,11,14,16.20
2008,05,26,11,15,16.10
2008,05,26,11,16,16.10
2008,05,26,11,17,16.10
2008,05,26,11,18,16.20
2008,05,26,11,19,16.20
2008,05,26,11,20,16.30
2008,05,26,11,21,16.30
2008,05,26,11,22,16.40
2008,05,26,11,23,16.50
2008,05,26,11,24,16.60
2008,05,26,11,25,16.80
2008,05,26,11,26,16.80
2008,05,26,11,27,16.90
2008,05,26,11,28,16.90
2008,05,26,11,29,16.90
2008,05,26,11,30,17.00
2008,05,26,11,31,17.10
2008,05,26,11,32,17.20
2008,05,26,11,33,17.30
2008,05,26,11,34,17.40
2008,05,26,11,35,17.50
2008,05,26,11,36,17.60
2008,05,26,11,37,17.70
2008,05,26,11,38,17.80
2008,05,26,11,39,18.00
2008,05,26,11,40,18.00
2008,05,26,11,41,18.10
2008,05,26,11,42,18.10
2008,05,26,11,43,18.00
2008,05,26,11,44,17.90
2008,05,26,11,45,17.90
2008,05,26,11,46,17.80
2008,05,26,11,47,17.80
2008,05,26,11,48,17.80
2008,05,26,11,49,17.70
2008,05,26,11,50,17.70
2008,05,26,11,51,17.70
2008,05,26,11,52,17.70
2008,05,26,11,53,17.70
2008,05,26,11,54,17.70
2008,05,26,11,55,17.70
2008,05,26,11,56,17.80
2008,05,26,11,57,17.80
2008,05,26,11,58,17.90
2008,05,26,11,59,18.00
2008,05,26,12,00,18.00
2008,05,26,12,01,18.10
2008,05,26,12,02,18.20
2008,05,26,12,03,18.40
2008,05,26,12,04,18.60
2008,05,26,12,05,18.60
2008,05,26,12,06,18.70
2008,05,26,12,07,18.80
2008,05,26,12,08,18.90
2008,05,26,12,09,18.90
2008,05,26,12,10,19.00
2008,05,26,12,11,19.00
2008,05,26,12,12,19.10
2008,05,26,12,13,19.10
2008,05,26,12,14,19.10
2008,05,26,12,15,19.10
2008,05,26,12,16,19.00
2008,05,26,12,17,18.90
2008,05,26,12,18,18.80
2008,05,26,12,19,18.80
2008,05,26,12,20,18.80
2008,05,26,12,21,18.80
2008,05,26,12,22,18.80
2008,05,26,12,23,18.80
2008,05,26,12,24,19.00
2008,05,26,12,25,19.10
2008,05,26,12,26,19.10
2008,05,26,12,27,19.00
2008,05,26,12,28,19.00
2008,05,26,12,29,19.00
2008,05,26,12,30,19.00
2008,05,26,12,31,19.10
2008,05,26,12,32,19.20
2008,05,26,12,33,19.20
2008,05,26,12,34,19.20
2008,05,26,12,35,19.20
2008,05,26,12,36,19.20
2008,05,26,12,37,19.10
2008,05,26,12,38,19.10
2008,05,26,12,39,19.10
2008,05,26,12,40,19.00
2008,05,26,12,41,19.00
2008,05,26,12,42,18.80
2008,05,26,12,43,18.70
2008,05,26,12,44,18.50
2008,05,26,12,45,18.40
2008,05,26,12,46,18.30
2008,05,26,12,47,18.20
2008,05,26,12,48,18.20
2008,05,26,12,49,18.10
2008,05,26,12,50,18.10
2008,05,26,12,51,18.00
2008,05,26,12,52,18.00
2008,05,26,12,53,17.90
2008,05,26,12,54,17.80
2008,05,26,12,55,17.60
2008,05,26,12,56,17.50
2008,05,26,12,57,17.50
2008,05,26,12,58,17.40
2008,05,26,12,59,17.40
2008,05,26,13,00,17.40
2008,05,26,13,01,17.40
2008,05,26,13,02,17.40
2008,05,26,13,03,17.50
2008,05,26,13,04,17.60
2008,05,26,13,05,17.60
2008,05,26,13,06,17.70
2008,05,26,13,07,17.70
2008,05,26,13,08,17.80
2008,05,26,13,09,17.80
2008,05,26,13,10,17.80
2008,05,26,13,11,17.90
2008,05,26,13,12,18.00
2008,05,26,13,13,18.00
2008,05,26,13,14,18.00
2008,05,26,13,15,17.90
2008,05,26,13,16,17.90
2008,05,26,13,17,17.80
2008,05,26,13,18,17.70
2008,05,26,13,19,17.60
2008,05,26,13,20,17.50
2008,05,26,13,21,17.40
2008,05,26,13,22,17.30
2008,05,26,13,23,17.20
2008,05,26,13,24,17.10
2008,05,26,13,25,17.10
2008,05,26,13,26,17.10
2008,05,26,13,27,17.00
2008,05,26,13,28,17.00
2008,05,26,13,29,17.00
2008,05,26,13,30,17.00
2008,05,26,13,31,17.10
2008,05,26,13,32,17.10
2008,05,26,13,33,17.20
2008,05,26,13,34,17.20
2008,05,26,13,35,17.20
2008,05,26,13,36,17.30
2008,05,26,13,37,17.30
2008,05,26,13,38,17.30
2008,05,26,13,39,17.20
2008,05,26,13,40,17.10
2008,05,26,13,41,16.90
2008,05,26,13,42,16.80
2008,05,26,13,43,16.60
2008,05,26,13,44,16.50
2008,05,26,13,45,16.30
2008,05,26,13,46,16.20
2008,05,26,13,47,16.00
2008,05,26,13,48,15.80
2008,05,26,13,49,15.70
2008,05,26,13,50,15.50
2008,05,26,13,51,15.40
2008,05,26,13,52,15.20
2008,05,26,13,53,15.00
2008,05,26,13,54,15.00
2008,05,26,13,55,14.90
2008,05,26,13,56,14.80
2008,05,26,13,57,14.70
2008,05,26,13,58,14.60
2008,05,26,13,59,14.60
2008,05,26,14,00,14.60
2008,05,26,14,01,14.60
2008,05,26,14,02,14.50
2008,05,26,14,03,14.50
2008,05,26,14,04,14.50
2008,05,26,14,05,14.50
2008,05,26,14,06,14.50
2008,05,26,14,07,14.60
2008,05,26,14,08,14.60
2008,05,26,14,09,14.60
2008,05,26,14,10,14.60
2008,05,26,14,11,14.60
2008,05,26,14,12,14.70
2008,05,26,14,13,14.70
2008,05,26,14,14,14.70
2008,05,26,14,15,14.70
2008,05,26,14,16,14.70
2008,05,26,14,17,14.80
2008,05,26,14,18,14.80
2008,05,26,14,19,14.80
2008,05,26,14,20,14.80
2008,05,26,14,21,14.80
2008,05,26,14,22,14.80
2008,05,26,14,23,14.80
2008,05,26,14,24,14.80
2008,05,26,14,25,14.90
2008,05,26,14,26,14.90
2008,05,26,14,27,15.00
2008,05,26,14,28,15.00
2008,05,26,14,29,15.00
2008,05,26,14,30,15.00
2008,05,26,14,31,15.00
2008,05,26,14,32,15.00
2008,05,26,14,33,15.00
2008,05,26,14,34,15.00
2008,05,26,14,35,15.00
2008,05,26,14,36,15.00
2008,05,26,14,37,15.00
2008,05,26,14,38,15.00
2008,05,26,14,39,15.00
2008,05,26,14,40,15.00
2008,05,26,14,41,15.00
2008,05,26,14,42,15.00
2008,05,26,14,43,15.00
2008,05,26,14,44,15.00
2008,05,26,14,45,15.00
2008,05,26,14,46,14.90
2008,05,26,14,47,14.70
2008,05,26,14,48,14.60
2008,05,26,14,49,14.50
2008,05,26,14,50,14.40
2008,05,26,14,51,14.30
2008,05,26,14,52,14.20
2008,05,26,14,53,14.20
2008,05,26,14,54,14.20
2008,05,26,14,55,14.10
2008,05,26,14,56,14.10
2008,05,26,14,57,14.10
2008,05,26,14,58,14.00
2008,05,26,14,59,14.00
2008,05,26,15,00,14.00
2008,05,26,15,01,14.00
2008,05,26,15,02,14.00
2008,05,26,15,03,14.00
2008,05,26,15,04,14.00
2008,05,26,15,05,14.00
2008,05,26,15,06,14.00
2008,05,26,15,07,14.10
2008,05,26,15,08,14.10
2008,05,26,15,09,14.10
2008,05,26,15,10,14.20
2008,05,26,15,11,14.20
2008,05,26,15,12,14.30
2008,05,26,15,13,14.30
2008,05,26,15,14,14.30
2008,05,26,15,15,14.40
2008,05,26,15,16,14.40
2008,05,26,15,17,14.40
2008,05,26,15,18,14.40
2008,05,26,15,19,14.40
2008,05,26,15,20,14.30
2008,05,26,15,21,14.30
2008,05,26,15,22,14.30
2008,05,26,15,23,14.30
2008,05,26,15,24,14.30
2008,05,26,15,25,14.30
2008,05,26,15,26,14.30
2008,05,26,15,27,14.30
2008,05,26,15,28,14.40
2008,05,26,15,29,14.40
2008,05,26,15,30,14.40
2008,05,26,15,31,14.50
2008,05,26,15,32,14.50
2008,05,26,15,33,14.60
2008,05,26,15,34,14.60
2008,05,26,15,35,14.70
2008,05,26,15,36,14.70
2008,05,26,15,37,14.80
2008,05,26,15,38,14.80
2008,05,26,15,39,14.90
2008,05,26,15,40,15.00
2008,05,26,15,41,15.00
2008,05,26,15,42,15.00
2008,05,26,15,43,15.00
2008,05,26,15,44,15.00
2008,05,26,15,45,15.00
2008,05,26,15,46,15.00
2008,05,26,15,47,15.00
2008,05,26,15,48,15.10
2008,05,26,15,49,15.10
2008,05,26,15,50,15.20
2008,05,26,15,51,15.20
2008,05,26,15,52,15.30
2008,05,26,15,53,15.30
2008,05,26,15,54,15.30
2008,05,26,15,55,15.30
2008,05,26,15,56,15.40
2008,05,26,15,57,15.40
2008,05,26,15,58,15.40
2008,05,26,15,59,15.40
2008,05,26,16,00,15.40
2008,05,26,16,01,15.40
2008,05,26,16,02,15.40
2008,05,26,16,03,15.40
2008,05,26,16,04,15.50
2008,05,26,16,05,15.50
2008,05,26,16,06,15.50
2008,05,26,16,07,15.60
2008,05,26,16,08,15.60
2008,05,26,16,09,15.60
2008,05,26,16,10,15.70
2008,05,26,16,11,15.70
2008,05,26,16,12,15.70
2008,05,26,16,13,15.70
2008,05,26,16,14,15.70
2008,05,26,16,15,15.70
2008,05,26,16,16,15.60
2008,05,26,16,17,15.60
2008,05,26,16,18,15.60
2008,05,26,16,19,15.60
2008,05,26,16,20,15.50
2008,05,26,16,21,15.60
2008,05,26,16,22,15.50
2008,05,26,16,23,15.50
2008,05,26,16,24,15.50
2008,05,26,16,25,15.50
2008,05,26,16,26,15.50
2008,05,26,16,27,15.50
2008,05,26,16,28,15.50
2008,05,26,16,29,15.40
2008,05,26,16,30,15.40
2008,05,26,16,31,15.50
2008,05,26,16,32,15.50
2008,05,26,16,33,15.50
2008,05,26,16,34,15.50
2008,05,26,16,35,15.50
2008,05,26,16,36,15.60
2008,05,26,16,37,15.60
2008,05,26,16,38,15.60
2008,05,26,16,39,15.60
2008,05,26,16,40,15.60
2008,05,26,16,41,15.60
2008,05,26,16,42,15.60
2008,05,26,16,43,15.60
2008,05,26,16,44,15.60
2008,05,26,16,45,15.60
2008,05,26,16,46,15.60
2008,05,26,16,47,15.60
2008,05,26,16,48,15.70
2008,05,26,16,49,15.70
2008,05,26,16,50,15.70
2008,05,26,16,51,15.70
2008,05,26,16,52,15.70
2008,05,26,16,53,15.70
2008,05,26,16,54,15.70
2008,05,26,16,55,15.70
2008,05,26,16,56,15.80
2008,05,26,16,57,15.80
2008,05,26,16,58,15.80
2008,05,26,16,59,15.80
2008,05,26,17,00,15.80
2008,05,26,17,01,15.80
2008,05,26,17,02,15.90
2008,05,26,17,03,15.90
2008,05,26,17,04,15.90
2008,05,26,17,05,16.00
2008,05,26,17,06,16.00
2008,05,26,17,07,16.00
2008,05,26,17,08,16.00
2008,05,26,17,09,16.00
2008,05,26,17,10,16.00
2008,05,26,17,11,16.00
2008,05,26,17,12,16.00
2008,05,26,17,13,16.00
2008,05,26,17,14,15.90
2008,05,26,17,15,15.90
2008,05,26,17,16,15.90
2008,05,26,17,17,15.90
2008,05,26,17,18,15.90
2008,05,26,17,19,15.90